#timestamp,LO_Frequency,Hit,StdDev 
1543896015.4,286046998.4,N
1543896035.3,286046999.7,N
1543896055.1,286046998.2,N
1543896075.8,286047001.6,N
1543896095.7,286047000.6,N
1543896115.5,286046998.2,N
1543896135.4,286046999.4,N
1543896155.2,286047000.4,N
1543896175.0,286046999.7,N
1543896175.9,286046999.7,N
1543896195.8,286046998.7,N
1543896215.6,286047002.4,N
1543896235.4,286046999.3,N
1543896255.3,286046999.4,N
1543896275.1,286046998.6,N
1543896295.9,286046997.1,N
1543896315.7,286046995.2,N
1543896335.5,286047000.5,N
1543896355.4,286046999.8,N
1543896375.2,286047000.8,N
1543896395.1,286046999.0,N
1543896396.0,286046999.0,N
1543896415.8,286046996.8,N
1543896435.6,286046997.9,N
1543896455.5,286046995.4,N
1543896475.3,286046995.0,N
1543896495.1,286046996.3,N
1543896515.9,286046995.7,N
1543896535.7,286046993.7,Y
1543896555.6,286046997.2,P
1543896575.4,286046998.8,N
1543896595.2,286046999.9,N
1543896615.1,286047000.1,N
1543896616.0,286047000.1,N
1543896635.8,286047000.7,N
1543896655.7,286047000.7,N
1543896675.5,286047000.0,N
1543896695.3,286047003.1,N
1543896715.2,286047002.0,N
1543896735.0,286047001.0,N
1543896735.9,286047001.0,N
1543896755.7,286047000.9,N
1543896775.6,286046998.8,N
1543896795.4,286046999.5,N
1543896815.3,286047000.8,N
1543896835.1,286047001.3,N
1543896855.8,286047002.1,N
1543896875.7,286046998.7,N
1543896895.5,286047002.3,N
1543896915.4,286047001.9,N
1543896935.2,286047001.1,N
1543896955.0,286047002.8,N
1543896955.9,286047002.8,N
1543896975.8,286046999.5,N
1543896995.6,286047000.3,N
1543897015.4,286047000.2,N
1543897035.3,286047000.2,N
1543897055.1,286046996.6,N
1543897075.9,286047000.0,N
1543897095.7,286047001.6,N
1543897115.5,286046998.1,N
1543897135.4,286047002.3,N
1543897155.2,286047000.8,N
1543897175.0,286047000.8,N
1543897176.0,286047000.8,N
1543897195.8,286046999.1,N
1543897215.6,286046998.9,N
1543897235.5,286046998.8,N
1543897255.3,286046999.2,N
1543897275.2,286046999.1,N
1543897295.9,286047004.2,N
1543897315.7,286047003.8,N
1543897335.6,286047002.0,N
1543897355.4,286046998.6,N
1543897375.2,286047000.9,N
1543897395.1,286046998.6,N
1543897396.0,286046998.6,N
1543897415.8,286046999.2,N
1543897435.7,286046998.3,N
1543897455.5,286046996.9,N
1543897475.3,286046998.5,N
1543897495.2,286047004.3,N
1543897515.0,286047002.2,N
1543897515.9,286047002.2,N
1543897535.8,286047005.6,N
1543897555.6,286047003.9,N
1543897575.4,286047006.0,N
1543897595.3,286047005.4,N
1543897615.1,286047004.1,N
1543897635.8,286047004.4,N
1543897655.7,286047001.3,N
1543897675.5,286047000.2,N
1543897695.4,286046999.5,N
1543897715.2,286046997.8,N
1543897735.0,286046996.5,N
1543897735.9,286046996.5,N
1543897755.8,286046999.0,N
1543897775.6,286046996.9,N
1543897795.4,286046996.5,N
1543897815.3,286046995.4,N
1543897835.1,286046997.3,N
1543897855.9,286046998.9,N
1543897875.7,286047001.2,N
1543897895.5,286047001.1,N
1543897915.4,286046995.1,N
1543897935.2,286046996.0,N
1543897955.0,286046998.3,N
1543897956.0,286046998.3,N
1543897975.8,286046996.9,N
1543897995.6,286046995.1,N
1543898015.5,286046996.3,N
1543898035.3,286046994.3,N
1543898055.1,286046993.8,N
1543898075.9,286046994.8,N
1543898095.7,286046990.5,N
1543898115.6,286046996.4,N
1543898135.4,286046995.5,N
1543898155.2,286046997.9,N
1543898175.1,286046996.6,N
1543898176.0,286046996.6,N
1543898195.8,286046995.2,N
1543898215.7,286046994.7,N
1543898235.5,286046993.6,Y
1543898255.3,286046995.2,P
1543898275.2,286046995.0,P
1543898295.0,286046997.9,N
1543898295.9,286046997.9,N
1543898315.7,286046996.7,N
1543898335.6,286046997.3,N
1543898355.4,286046999.4,N
1543898375.3,286047000.3,N
1543898395.1,286047001.4,N
1543898396.0,286047001.4,N
1543898415.8,286046999.8,N
1543898435.7,286047002.7,N
1543898455.5,286047000.2,N
1543898475.3,286047000.6,N
1543898495.2,286046999.3,N
1543898515.0,286046996.9,N
1543898515.9,286046996.9,N
1543898535.8,286046995.6,N
1543898555.6,286046997.2,N
1543898575.4,286046997.8,N
1543898595.3,286046996.5,N
1543898615.1,286046994.9,N
1543898635.9,286046993.7,N
1543898655.7,286046993.3,N
1543898675.5,286046997.0,N
1543898695.4,286046996.5,N
1543898715.2,286046998.7,N
1543898735.0,286046997.4,N
1543898735.9,286046997.4,N
1543898755.8,286046996.6,N
1543898775.6,286046995.0,N
1543898795.5,286046997.8,N
1543898815.3,286046997.4,N
1543898835.1,286046993.4,N
1543898855.9,286046993.7,N
1543898875.7,286046993.3,N
1543898895.5,286046997.5,N
1543898915.4,286046999.5,N
1543898935.2,286046995.0,N
1543898955.1,286047000.2,N
1543898956.0,286047000.2,N
1543898975.8,286047002.3,N
1543898995.6,286047004.2,N
1543899015.5,286047004.9,N
1543899035.3,286047001.9,N
1543899055.2,286047004.2,N
1543899075.9,286047002.4,N
1543899095.7,286047001.0,N
1543899115.6,286047001.9,N
1543899135.4,286047006.0,N
1543899155.2,286047000.4,N
1543899175.1,286046999.4,N
1543899176.0,286046999.4,N
1543899195.8,286047000.7,N
1543899215.7,286046996.8,N
1543899235.5,286046995.1,N
1543899255.3,286046996.4,N
1543899275.2,286046997.2,N
1543899295.0,286046995.5,N
1543899295.9,286046995.5,N
1543899315.8,286046997.8,N
1543899335.6,286046994.2,N
1543899355.4,286046994.1,N
1543899375.3,286046993.8,N
1543899395.1,286046996.4,N
1543899415.8,286046996.0,N
1543899435.7,286046992.4,N
1543899455.5,286046993.5,N
1543899475.4,286046995.0,N
1543899495.2,286046994.1,N
1543899515.0,286046994.2,N
1543899515.9,286046994.2,N
1543899535.8,286046995.1,N
1543899555.6,286046995.6,N
1543899575.5,286046993.9,N
1543899595.3,286046992.6,N
